Location: Chuathbaluk
(61.5726°N, 159.2454°W)
Time: 15:56:42
(UTC+00:00)

S-56A Canister/Altair - Pass Details

Date: 05 December 2020
Orbit: 633 x 2499 km, 38.9° (Epoch: 15 January)

Event Time Altitude Azimuth Distance (km) Brightness Sun altitude
Rises 06:22:58 0° 239° (WSW) 5,720 12.5 -33.2°
Reaches altitude 10° 06:28:30 10° 224° (SW) 4,394 11.6 -33.8°
Maximum altitude 06:35:21 18° 188° (S) 3,281 10.6 -34.6°
Enters shadow 06:35:56 18° 183° (S) 3,244 10.5 -34.7°
Drops below altitude 10° 06:40:55 10° 149° (SSE) 3,441 - -35.3°
Sets 06:44:30 0° 131° (SE) 4,096 - -35.7°
